Location: Northam
(31.6525°S, 116.6655°E)
Time: 19:14:05
(UTC+08:00)

AAUSAT CUBESAT 2 - Pass Details

Date: 03 August 2021
Orbit: 572 x 587 km, 97.5° (Epoch: 18 September)

Event Time Altitude Azimuth Distance (km) Brightness Sun altitude
Rises 18:41:53 0° 195° (SSW) 2,849 ? -13.6°
Reaches altitude 10° 18:45:26 10° 227° (SW) 1,936 ? -14.4°
Maximum altitude 18:46:54 12° 248° (WSW) 1,820 ? -14.7°
Drops below altitude 10° 18:48:23 10° 269° (W) 1,925 ? -15.0°
Sets 18:51:54 0° 301° (WNW) 2,811 ? -15.7°
